Weather History for Hermiston, OR

Change the Weather History Date:

Tuesday, February 5, 2013

  Actual Average Record
Temperature  
Mean Temperature 42 °F -  
Max Temperature 54 °F 41 °F 61 °F (1967)
Min Temperature 30 °F 23 °F -10 °F (1989)
Degree Days  
Heating Degree Days 23    
Moisture  
Dew Point 34 °F    
Average Humidity 82    
Maximum Humidity 100    
Minimum Humidity 53    
Precipitation  
Precipitation 0.00 in - - ()
Sea Level Pressure  
Sea Level Pressure 29.92 in    
Wind  
Wind Speed 3 mph (SW)    
Max Wind Speed 14 mph    
Max Gust Speed -    
Visibility 7 miles    
Events Fog    
Averages and records for this station are not official NWS values.
T = Trace of Precipitation, MM = Missing Value Source: NWS Daily Summary

Daily Weather History Graph

Daily Weather History Graph

Search for Another Location

Airport:

Trip Planner

Search our weather history database for the weather conditions in past years. The results will help you decide how hot, cold, wet, or windy it might be!

Date:

Astronomy

Feb. 05, 2013 Rise Set
Actual Time 7:13 AM PST 5:09 PM PST
Civil Twilight 6:41 AM PST 5:40 PM PST
Nautical Twilight 6:06 AM PST 6:16 PM PST
Astronomical Twilight 5:31 AM PST 6:51 PM PST
Moon 3:06 AM PST (2/5) 12:25 PM PST (2/5)
Length of Visible Light 10h 58m
Length of Day
9h 56m
Waning Crescent, 25% of the Moon is Illuminated
Feb 5
Waning Crescent
Feb 9
New
Feb 17
First Quarter
Feb 25
Full
Mar 4
Last Quarter

Hourly Weather History & Observations

Time (PST) Temp. Windchill Dew Point Humidity Pressure Visibility Wind Dir Wind Speed Gust Speed Precip Events Conditions
12:53 AM 37.0 °F 34.5 °F 35.1 °F 93% 29.92 in 10.0 mi WSW 3.5 mph - N/A   Clear
1:53 AM 37.9 °F 34.4 °F 36.0 °F 93% 29.92 in 10.0 mi West 4.6 mph - N/A   Overcast
2:53 AM 37.0 °F - 36.0 °F 96% 29.91 in 8.0 mi Calm Calm - N/A   Clear
4:47 AM 32.0 °F - 30.2 °F 93% 29.90 in 1.8 mi Calm Calm - N/A   Clear
4:53 AM 32.0 °F - 30.9 °F 96% 29.91 in 0.5 mi Calm Calm - N/A Fog Fog
5:17 AM 30.2 °F - 30.2 °F 100% 29.89 in 0.2 mi Calm Calm - N/A Fog Light Freezing Fog
5:49 AM 30.2 °F - 30.2 °F 100% 29.90 in 0.2 mi Calm Calm - N/A Fog Light Freezing Fog
5:53 AM 32.0 °F - 30.9 °F 96% 29.91 in 0.2 mi Calm Calm - N/A Fog Fog
6:21 AM 33.8 °F 29.6 °F 32.0 °F 93% 29.90 in 2.0 mi SSE 4.6 mph - N/A   Overcast
6:36 AM 33.8 °F 29.6 °F 33.8 °F 100% 29.90 in 4.0 mi SSE 4.6 mph - N/A   Overcast
7:53 AM 33.1 °F - 30.9 °F 92% 29.90 in 4.0 mi Calm Calm - N/A   Partly Cloudy
8:07 AM 33.8 °F - 30.2 °F 87% 29.89 in 2.5 mi Calm Calm - N/A   Scattered Clouds
8:15 AM 33.8 °F - 32.0 °F 93% 29.89 in 3.0 mi Calm Calm - N/A   Scattered Clouds
8:53 AM 37.0 °F 34.5 °F 34.0 °F 89% 29.92 in 9.0 mi NNW 3.5 mph - N/A   Clear
9:53 AM 41.0 °F - 37.0 °F 86% 29.92 in 10.0 mi Calm Calm - N/A   Overcast
10:53 AM 50.0 °F - 39.0 °F 66% 29.92 in 10.0 mi Variable 4.6 mph - N/A   Overcast
11:53 AM 48.0 °F - 39.0 °F 71% 29.92 in 10.0 mi Calm Calm - 0.00 in   Overcast
12:53 PM 50.0 °F - 39.0 °F 66% 29.90 in 10.0 mi West 9.2 mph - 0.00 in   Overcast
1:53 PM 51.1 °F - 37.9 °F 61% 29.89 in 10.0 mi West 9.2 mph - 0.00 in   Overcast
2:53 PM 54.0 °F - 37.0 °F 53% 29.89 in 10.0 mi WSW 13.8 mph - N/A   Overcast
3:53 PM 53.1 °F - 37.0 °F 55% 29.90 in 10.0 mi West 8.1 mph - N/A   Clear
4:53 PM 48.9 °F - 36.0 °F 61% 29.90 in 10.0 mi West 3.5 mph - N/A   Clear
5:53 PM 45.0 °F 41.8 °F 35.1 °F 68% 29.91 in 10.0 mi South 5.8 mph - N/A   Partly Cloudy
6:53 PM 46.0 °F 41.9 °F 36.0 °F 68% 29.93 in 10.0 mi SW 8.1 mph - N/A   Mostly Cloudy
7:53 PM 39.9 °F 37.8 °F 35.1 °F 83% 29.95 in 10.0 mi SSE 3.5 mph - N/A   Overcast
8:53 PM 43.0 °F 40.3 °F 36.0 °F 76% 29.96 in 10.0 mi SSW 4.6 mph - N/A   Overcast
9:53 PM 39.9 °F 34.5 °F 35.1 °F 83% 29.99 in 10.0 mi SSW 8.1 mph - N/A   Mostly Cloudy
11:53 PM 39.9 °F 35.8 °F 33.1 °F 77% 30.01 in 10.0 mi SW 5.8 mph - N/A   Scattered Clouds